Location: Newark
(41.0400°S, 62.7845°W)
Time: 20:20:58
(UTC+00:00)

Courier 1B Rocket - Pass Details

Date: 05 December 2021
Orbit: 920 x 1202 km, 28.2° (Epoch: 22 January)

Event Time Altitude Azimuth Distance (km) Brightness Sun altitude
Rises 18:50:14 0° 281° (W) 4,101 8.9 50.2°
Reaches altitude 10° 18:54:05 10° 298° (WNW) 3,141 8.5 49.5°
Maximum altitude 18:59:07 19° 338° (NNW) 2,542 7.8 48.6°
Drops below altitude 10° 19:04:05 10° 18° (NNE) 3,095 7.7 47.7°
Sets 19:07:52 0° 36° (NE) 4,018 8.0 47.0°
